Location: Middle Street
(51.7167°N, 0.0333°E)
Time: 01:10:09
(UTC+00:00)

USA 229 - Pass Details

Date: 20 January 2021
Orbit: 964 x 1248 km, 63.4° (Epoch: 26 February)

Event Time Altitude Azimuth Distance (km) Brightness Sun altitude
Rises 17:47:04 0° 307° (NW) 3,866 7.2 -12.0°
Reaches altitude 10° 17:49:49 10° 314° (NW) 2,950 6.4 -12.4°
Maximum altitude 17:56:32 44° 26° (NNE) 1,543 4.3 -13.4°
Enters shadow 18:01:56 18° 91° (E) 2,590 5.1 -14.2°
